Home   Weather   Radom   Past weeks

Flag for Poland Past Weather in Radom, Poland — Yesterday and Last 2 Weeks

Now
57 °F

Passing clouds.


Feels Like: 57 °F
Forecast: 55 / 72 °F
Wind: 2 mph from East

Location: Kielce

Current Time: Oct 2, 2016 at 12:33:22 AM

Latest Report: Oct 1, 2016 at 11:00 PM


Visibility: 7 mi

Pressure: 29.91 "Hg

Humidity: 83%

Dew Point: 52 °F

Location of RadomLocation

Past Weather in Radom — Graph

°F

Radom Temperature Yesterday

Maximum temperature yesterday: 74 °F (at 3:00 PM)
Minimum temperature yesterday: 49 °F (at 7:00 AM)
Average temperature yesterday: 60 °F

High & Low Weather Summary for the Past Weeks

 TemperatureHumidityPressure
High75 °F (Sep 17, 3:00 PM)100% (Sep 22, 6:00 AM)30.41 "Hg (Sep 22, 6:00 AM)
Low32 °F (Sep 28, 6:00 AM)44% (Sep 29, 4:00 PM)29.85 "Hg (Sep 17, 3:00 PM)
Average54 °F78%30.12 "Hg
* Reported Sep 16 11:00 PM — Oct 1 11:00 PM, Radom, Weather by CustomWeather, © 2016

Note: Actual official high and low records may vary slightly from our data, if they occured in-between our weather recording intervals... More about our weather records

Advertising

Radom Weather History for the Previous 24 Hours

Scroll right to see more
 ConditionsComfort  
Time TempWeatherWind HumidityBarometerVisibility
11:00 PM
Sat, Oct 1
57 °FPassing clouds.2 mph83%29.91 "Hg7 mi
10:00 PM58 °FClear.1 mph80%29.92 "Hg7 mi
9:00 PM60 °FClear.2 mph76%29.91 "Hg7 mi
8:00 PM60 °FFog.2 mph77%29.92 "Hg5 mi
7:00 PM63 °FOvercast.1 mph70%29.91 "Hg12 mi
6:00 PM67 °FOvercast.2 mph62%29.90 "Hg16 mi
5:00 PM71 °FOvercast.3 mph55%29.89 "Hg22 mi
4:00 PM73 °FOvercast.5 mph48%29.90 "Hg22 mi
3:00 PM74 °FOvercast.3 mph50%29.91 "Hg17 mi
1:00 PM72 °FOvercast.2 mph55%29.94 "Hg14 mi
12:00 PM71 °FOvercast.2 mph60%29.96 "Hg12 mi
11:00 AM67 °FOvercast.2 mph62%29.97 "Hg11 mi
10:00 AM64 °FOvercast.1 mph72%29.99 "Hg10 mi
9:00 AM59 °FPartly sunny.1 mph82%30.00 "Hg6 mi
8:00 AM53 °FFog.No wind97%30.00 "Hg2 mi
7:00 AM49 °FFog.1 mph96%30.00 "Hg2 mi
6:00 AM50 °FFog.No wind97%30.00 "Hg2 mi
5:00 AM50 °FFog.1 mph96%30.00 "Hg1 mi
4:00 AM50 °FFog.1 mph96%30.00 "Hg2 mi
3:00 AM51 °FFog.1 mph95%30.00 "Hg4 mi
2:00 AM51 °FFog.3 mph97%30.01 "Hg2 mi
1:00 AM51 °FFog.1 mph97%30.01 "Hg2 mi
12:00 AM51 °FFog.1 mph96%30.01 "Hg2 mi
Weather by CustomWeather, © 2016

See weather overviewHow to use our weather pages